Regional Weather Roundup
Issued by NWS

Home | Current Version | Previous Version | Graphics & Text | Print | Product List | Glossary On
Versions: 1 2 3 4 5 6 7 8 9 10 11 12 13 14 15 16 17 18 19 20 21 22 23 24 25 26 27 28 29 30 31 32 33 34 35 36 37 38 39 40 41 42 43 44 45 46 47 48 49 50
000
ASUS43 KFSD 151310
RWRSD

WEATHER ROUNDUP FOR SOUTH DAKOTA
NATIONAL WEATHER SERVICE SIOUX FALLS SD
700 AM CST SUN JAN 15 2017

NOTE: "FAIR" INDICATES FEW OR NO CLOUDS BELOW 12,000 FEET WITH NO
SIGNIFICANT WEATHER AND/OR OBSTRUCTIONS TO VISIBILITY.


SDZ001>005-009-010-012>017-151400-
NORTHWEST AND NORTH CENTRAL SOUTH DAKOTA

CITY           SKY/WX    TMP DP  RH WIND       PRES   REMARKS
BUFFALO          N/A     20   9  62 CALM      30.05S
FAITH            N/A     15  11  83 W8        30.14F WCI   4
MOBRIDGE       CLOUDY    -4 -10  75 SE5       30.17F WCI -15
$$

SDZ012>016-024>037-041>051-057-063-072>074-151400-
SOUTHWEST AND SOUTH CENTRAL SOUTH DAKOTA

CITY           SKY/WX    TMP DP  RH WIND       PRES   REMARKS
RAPID CTY ARPT CLOUDY    15   0  51 W8        30.12F WCI   4
PIERRE         CLOUDY     2  -3  80 SW6       30.21F WCI  -9
CUSTER         CLOUDY    24  11  57 NW7       30.09F WCI  16
ELLSWORTH AFB  CLOUDY    15  -2  46 NW6       30.11F WCI   6
PHILIP         CLOUDY    -2  -6  83 NW5       30.18F WCI -12
PINE RIDGE     CLOUDY     9   6  88 W5        30.16S WCI   1
SPEARFISH      FAIR      21   0  39 S5        30.12F WCI  15
WINNER         FAIR      18  15  88 CALM      30.20F
$$

SDZ004>011-016>023-039-040-151400-
NORTHEAST SOUTH DAKOTA

CITY           SKY/WX    TMP DP  RH WIND       PRES   REMARKS
ABERDEEN       CLOUDY    -6 -11  79 SW5       30.25F WCI -17
WATERTOWN      CLOUDY     6   3  87 S8        30.22F WCI  -7
BROOKINGS      CLOUDY     4   2  91 E3        30.25F
SISSETON         N/A     20  12  71 SW16      30.22F WCI   6
$$

SDZ017-020-022-023-036>040-048>070-151400-
SOUTHEAST SOUTH DAKOTA

CITY           SKY/WX    TMP DP  RH WIND       PRES   REMARKS
SIOUX FALLS    CLOUDY     6   4  91 N3        30.30S
HURON          CLOUDY    11   8  88 S9        30.24F WCI  -2
CHAMBERLAIN    CLOUDY     8   5  89 CALM      30.22F
MITCHELL       CLOUDY    10   8  92 S6        30.28F WCI   0
YANKTON        CLOUDY    14  10  85 CALM      30.30F
$$

ABBREVIATIONS USED IN REMARKS
   TC - TEMPERATURE IN CELSIUS
  WCI - WIND CHILL INDEX
   HX - HEAT INDEX
  VSB - VISIBILITY





USA.gov is the U.S. government's official web portal to all federal, state and local government web resources and services.